Terminal Aerodrome Forecast
Issued by NWS

Home | Current Version | Previous Version | Text Only | Print | Product List | Glossary On
Versions: 1 2 3 4 5 6 7 8 9 10 11 12 13 14
692
FTUS46 KMTR 291120
TAFOAK
TAF
KOAK 291120Z 2912/3018 21008KT P6SM BKN012
     FM291700 22008KT P6SM SCT015
     FM291900 27012G18KT P6SM FEW015
     FM292100 26018G24KT P6SM SKC
     FM300200 26020G28KT P6SM FEW015
     FM300500 25014G21KT P6SM SCT015
     FM300800 VRB04KT P6SM FEW015
     FM301700 27014G21KT P6SM SKC=

USA.gov is the U.S. government's official web portal to all federal, state and local government web resources and services.